Tracking 28081 objects as of 27-Sep-2023
HD Live streaming from Space Station
objects crossing your sky now

XSS 10

Track XSS 10 now!
10-day predictions
XSS 10 is classified as:


NORAD ID: 27664
Int'l Code: 2003-005B
Perigee: 511.1 km
Apogee: 750.3 km
Inclination: 39.7 °
Period: 97.2 minutes
Semi major axis: 7001 km
RCS: 0.183 m2 (medium)
Launch date: January 29, 2003
Source: United States (US)
Launch site: AIR FORCE EASTERN TEST RANGE (AFETR)
Your satellite tracking list
Your tracking list is empty




NASA's NSSDC Master Catalog

Two Line Element Set (TLE):
1 27664U 03005B   23269.33676723  .00003514  00000-0  35301-3 0  9990
2 27664  39.7478 235.6899 0170790 247.1788 111.0876 14.81829448114557
Source of the keplerian elements: AFSPC